QPF
0.00 0.00 0.00 0.00 0.00 0.00 0.00 0.00 0.00 0.00 0.00 0.00 0.00 0.00 0.00 0.00 0.00 0.00 0.00 0.00 0.00 0.00 0.01 0.01 0.01 0.01 0.01 0.02 0.03 0.03 0.01 0.02 0.03 0.03 0.03 0.03 0.03 0.05 0.05 0.08 0.11 0.15 0.21 0.23
0.00 0.00 0.00 0.00 0.00 0.00 0.00 0.00 0.00 0.00 0.00 0.00 0.00 0.00 0.00 0.00 0.00 0.00 0.00 0.00 0.00 0.00 0.00 0.01 0.02 0.01 0.01 0.02 0.03 0.02 0.02 0.02 0.04 0.05 0.06 0.08 0.11 0.13 0.13 0.14 0.19 0.24 0.29 0.31
0.00 0.00 0.00 0.00 0.00 0.00 0.00 0.00 0.00 0.00 0.00 0.00 0.00 0.00 0.00 0.00 0.00 0.00 0.00 0.00 0.00 0.01 0.01 0.01 0.01 0.01 0.02 0.03 0.03 0.03 0.02 0.03 0.06 0.10 0.13 0.17 0.19 0.22 0.25 0.27 0.31 0.34 0.35 0.36
0.00 0.00 0.00 0.00 0.00 0.00 0.00 0.00 0.00 0.00 0.00 0.00 0.00 0.01 0.01 0.01 0.01 0.01 0.01 0.01 0.01 0.01 0.01 0.01 0.01 0.02 0.03 0.03 0.03 0.04 0.04 0.05 0.09 0.14 0.16 0.22 0.28 0.32 0.38 0.41 0.40 0.38 0.37 0.39
0.00 0.00 0.00 0.00 0.00 0.00 0.00 0.00 0.00 0.00 0.00 0.00 0.00 0.01 0.02 0.01 0.01 0.02 0.02 0.02 0.02 0.02 0.02 0.02 0.02 0.02 0.03 0.03 0.04 0.04 0.04 0.05 0.06 0.10 0.16 0.22 0.30 0.38 0.46 0.49 0.47 0.46 0.50 0.51
0.00 0.00 0.00 0.00 0.00 0.00 0.00 0.00 0.00 0.00 0.00 0.00 0.00 0.01 0.03 0.03 0.02 0.03 0.03 0.03 0.03 0.03 0.03 0.03 0.03 0.03 0.03 0.04 0.05 0.06 0.07 0.08 0.09 0.14 0.18 0.26 0.34 0.43 0.49 0.49 0.49 0.53 0.53 0.44
0.00 0.00 0.00 0.00 0.00 0.00 0.00 0.00 0.00 0.00 0.00 0.01 0.01 0.02 0.04 0.04 0.03 0.03 0.03 0.04 0.04 0.04 0.04 0.04 0.04 0.04 0.05 0.05 0.07 0.09 0.11 0.12 0.14 0.17 0.24 0.32 0.38 0.46 0.49 0.47 0.46 0.43 0.35 0.28
0.00 0.00 0.00 0.00 0.00 0.00 0.00 0.00 0.00 0.00 0.00 0.01 0.02 0.03 0.05 0.04 0.02 0.03 0.03 0.03 0.04 0.05 0.05 0.05 0.05 0.06 0.06 0.06 0.09 0.10 0.14 0.17 0.18 0.21 0.26 0.33 0.35 0.36 0.36 0.36 0.36 0.33 0.27 0.24
0.00 0.00 0.00 0.00 0.00 0.00 0.00 0.00 0.00 0.00 0.00 0.02 0.03 0.04 0.05 0.04 0.03 0.02 0.02 0.02 0.03 0.04 0.04 0.03 0.04 0.04 0.04 0.05 0.06 0.07 0.09 0.13 0.16 0.20 0.20 0.20 0.20 0.20 0.21 0.21 0.20 0.18 0.16 0.14
0.00 0.00 0.00 0.00 0.00 0.00 0.00 0.00 0.00 0.00 0.00 0.02 0.03 0.04 0.04 0.04 0.03 0.02 0.02 0.02 0.03 0.03 0.02 0.02 0.02 0.03 0.03 0.03 0.04 0.05 0.06 0.08 0.09 0.13 0.14 0.13 0.13 0.13 0.13 0.12 0.13 0.13 0.14 0.14
0.01 0.00 0.00 0.00 0.00 0.00 0.00 0.00 0.00 0.00 0.00 0.01 0.03 0.05 0.04 0.05 0.04 0.02 0.01 0.01 0.01 0.01 0.01 0.01 0.01 0.01 0.01 0.01 0.02 0.03 0.04 0.04 0.05 0.05 0.06 0.06 0.07 0.07 0.08 0.09 0.10 0.11 0.10 0.10
0.01 0.01 0.00 0.00 0.00 0.00 0.00 0.00 0.00 0.00 0.00 0.00 0.02 0.04 0.03 0.05 0.04 0.02 0.01 0.01 0.01 0.01 0.01 0.01 0.01 0.01 0.01 0.01 0.02 0.02 0.02 0.02 0.03 0.03 0.04 0.04 0.04 0.05 0.06 0.06 0.06 0.06 0.06 0.06
0.01 0.01 0.02 0.02 0.01 0.00 0.00 0.00 0.00 0.00 0.00 0.00 0.02 0.03 0.02 0.02 0.03 0.02 0.02 0.01 0.01 0.01 0.01 0.02 0.01 0.02 0.02 0.02 0.01 0.01 0.01 0.01 0.02 0.02 0.03 0.03 0.04 0.04 0.05 0.05 0.05 0.05 0.05 0.05
0.01 0.02 0.02 0.02 0.02 0.01 0.01 0.00 0.00 0.00 0.01 0.01 0.03 0.03 0.04 0.03 0.03 0.03 0.02 0.02 0.02 0.02 0.02 0.02 0.02 0.02 0.02 0.02 0.02 0.01 0.02 0.02 0.02 0.02 0.02 0.03 0.03 0.04 0.04 0.05 0.05 0.05 0.05 0.05
0.01 0.02 0.02 0.01 0.01 0.01 0.01 0.00 0.00 0.01 0.01 0.03 0.04 0.03 0.05 0.06 0.06 0.05 0.05 0.04 0.04 0.04 0.03 0.03 0.03 0.03 0.03 0.03 0.03 0.02 0.02 0.01 0.01 0.01 0.02 0.02 0.02 0.02 0.02 0.03 0.03 0.03 0.02 0.02
0.00 0.02 0.03 0.02 0.01 0.01 0.01 0.01 0.00 0.01 0.02 0.04 0.04 0.04 0.08 0.09 0.10 0.09 0.09 0.08 0.07 0.07 0.06 0.06 0.05 0.04 0.04 0.04 0.03 0.03 0.02 0.02 0.02 0.01 0.01 0.01 0.01 0.01 0.01 0.01 0.01 0.01 0.01 0.01
0.00 0.02 0.04 0.04 0.01 0.01 0.02 0.01 0.01 0.02 0.02 0.04 0.05 0.05 0.08 0.10 0.11 0.11 0.12 0.11 0.11 0.10 0.11 0.10 0.08 0.07 0.06 0.04 0.02 0.02 0.02 0.01 0.01 0.01 0.01 0.01 0.01 0.01 0.01 0.01 0.01 0.01 0.01 0.01
0.00 0.01 0.02 0.02 0.02 0.02 0.02 0.01 0.01 0.01 0.01 0.02 0.05 0.09 0.12 0.14 0.15 0.17 0.18 0.18 0.18 0.16 0.15 0.13 0.10 0.07 0.05 0.04 0.03 0.01 0.01 0.01 0.01 0.01 0.01 0.01 0.00 0.00 0.00 0.00 0.00 0.00 0.01 0.00
0.00 0.01 0.01 0.02 0.02 0.01 0.02 0.01 0.01 0.02 0.03 0.03 0.04 0.09 0.14 0.16 0.15 0.19 0.21 0.21 0.23 0.23 0.18 0.14 0.11 0.08 0.05 0.02 0.01 0.01 0.01 0.01 0.01 0.01 0.01 0.00 0.00 0.00 0.00 0.00 0.00 0.00 0.01 0.01
0.00 0.00 0.01 0.02 0.02 0.02 0.02 0.02 0.01 0.02 0.03 0.03 0.04 0.06 0.08 0.11 0.14 0.15 0.14 0.12 0.12 0.13 0.11 0.08 0.06 0.04 0.02 0.01 0.01 0.01 0.01 0.01 0.01 0.01 0.00 0.00 0.00 0.00 0.00 0.00 0.01 0.00 0.01 0.01
0.00 0.00 0.01 0.01 0.01 0.01 0.01 0.01 0.02 0.04 0.05 0.02 0.02 0.05 0.07 0.09 0.07 0.06 0.06 0.06 0.05 0.05 0.04 0.04 0.03 0.04 0.02 0.02 0.01 0.01 0.01 0.01 0.01 0.01 0.00 0.00 0.00 0.00 0.00 0.01 0.01 0.01 0.00 0.01
0.00 0.00 0.00 0.01 0.01 0.01 0.01 0.03 0.04 0.03 0.01 0.01 0.02 0.02 0.03 0.03 0.02 0.02 0.02 0.02 0.02 0.03 0.03 0.03 0.03 0.03 0.02 0.02 0.02 0.01 0.01 0.01 0.00 0.00 0.00 0.01 0.01 0.00 0.00 0.01 0.01 0.01 0.00 0.01
0.00 0.00 0.00 0.00 0.00 0.00 0.00 0.01 0.00 0.00 0.00 0.01 0.01 0.01 0.01 0.01 0.01 0.01 0.01 0.02 0.02 0.02 0.03 0.03 0.02 0.01 0.02 0.02 0.02 0.02 0.01 0.01 0.00 0.01 0.01 0.01 0.01 0.00 0.00 0.01 0.01 0.01 0.01 0.00
0.00 0.00 0.00 0.00 0.00 0.00 0.00 0.00 0.00 0.00 0.00 0.00 0.00 0.00 0.00 0.00 0.00 0.01 0.01 0.03 0.04 0.04 0.03 0.02 0.01 0.01 0.02 0.02 0.01 0.01 0.01 0.00 0.01 0.01 0.01 0.01 0.01 0.01 0.00 0.00 0.00 0.00 0.00 0.00
0.00 0.00 0.00 0.00 0.00 0.00 0.00 0.00 0.00 0.00 0.00 0.00 0.00 0.00 0.00 0.00 0.00 0.00 0.01 0.01 0.02 0.02 0.02 0.02 0.02 0.02 0.01 0.01 0.01 0.01 0.01 0.01 0.01 0.01 0.01 0.01 0.01 0.01 0.01 0.01 0.00 0.00 0.00 0.00
0.00 0.00 0.00 0.00 0.00 0.00 0.00 0.00 0.00 0.00 0.00 0.00 0.00 0.00 0.00 0.00 0.00 0.00 0.01 0.01 0.01 0.01 0.01 0.02 0.02 0.01 0.01 0.01 0.01 0.00 0.00 0.00 0.01 0.01 0.01 0.01 0.01 0.00 0.00 0.00 0.00 0.00 0.00 0.00
MSLP
1012.23 1012.43 1012.51 1012.47 1012.32 1012.09 1011.81 1011.51 1011.20 1010.89 1010.57 1010.22 1009.83 1009.41 1008.97 1008.53 1008.15 1007.85 1007.68 1007.66 1007.81 1008.11 1008.54 1009.06 1009.64 1010.23 1010.81 1011.37 1011.89 1012.38 1012.84 1013.30 1013.75 1014.20 1014.65 1015.09 1015.52 1015.92 1016.30 1016.65 1016.96 1017.25 1017.52 1017.78
1012.14 1012.29 1012.34 1012.27 1012.11 1011.89 1011.64 1011.39 1011.15 1010.91 1010.67 1010.41 1010.12 1009.79 1009.45 1009.11 1008.80 1008.58 1008.45 1008.46 1008.60 1008.86 1009.22 1009.65 1010.11 1010.57 1011.03 1011.46 1011.87 1012.27 1012.68 1013.10 1013.54 1014.00 1014.48 1014.96 1015.44 1015.89 1016.31 1016.69 1017.04 1017.35 1017.65 1017.93
1011.91 1012.02 1012.04 1011.96 1011.82 1011.64 1011.46 1011.29 1011.16 1011.04 1010.92 1010.80 1010.65 1010.46 1010.25 1010.03 1009.83 1009.67 1009.60 1009.61 1009.72 1009.91 1010.17 1010.46 1010.77 1011.08 1011.37 1011.66 1011.94 1012.24 1012.58 1012.96 1013.40 1013.88 1014.39 1014.93 1015.46 1015.97 1016.44 1016.87 1017.25 1017.60 1017.92 1018.23
1011.58 1011.66 1011.65 1011.58 1011.47 1011.35 1011.25 1011.20 1011.19 1011.22 1011.27 1011.31 1011.33 1011.31 1011.26 1011.18 1011.10 1011.03 1011.00 1011.02 1011.09 1011.20 1011.34 1011.50 1011.64 1011.78 1011.91 1012.04 1012.20 1012.41 1012.68 1013.03 1013.46 1013.96 1014.52 1015.10 1015.69 1016.25 1016.77 1017.25 1017.67 1018.05 1018.40 1018.72
1011.24 1011.27 1011.24 1011.17 1011.08 1011.01 1011.00 1011.05 1011.17 1011.36 1011.57 1011.80 1012.01 1012.19 1012.31 1012.40 1012.45 1012.48 1012.51 1012.54 1012.58 1012.63 1012.67 1012.69 1012.70 1012.69 1012.68 1012.68 1012.73 1012.86 1013.08 1013.40 1013.83 1014.35 1014.94 1015.57 1016.20 1016.80 1017.36 1017.87 1018.31 1018.71 1019.06 1019.38
1010.96 1010.95 1010.88 1010.78 1010.69 1010.64 1010.67 1010.80 1011.03 1011.35 1011.72 1012.12 1012.52 1012.89 1013.20 1013.46 1013.66 1013.81 1013.92 1014.00 1014.05 1014.07 1014.05 1013.99 1013.90 1013.78 1013.67 1013.59 1013.57 1013.64 1013.82 1014.13 1014.56 1015.09 1015.70 1016.35 1017.00 1017.62 1018.20 1018.71 1019.15 1019.54 1019.88 1020.19
1010.80 1010.72 1010.59 1010.44 1010.31 1010.25 1010.28 1010.44 1010.73 1011.13 1011.63 1012.17 1012.73 1013.27 1013.77 1014.20 1014.56 1014.86 1015.08 1015.24 1015.34 1015.38 1015.36 1015.28 1015.15 1015.00 1014.85 1014.73 1014.68 1014.73 1014.90 1015.21 1015.63 1016.16 1016.77 1017.42 1018.06 1018.67 1019.22 1019.71 1020.12 1020.47 1020.78 1021.06
1010.78 1010.63 1010.41 1010.19 1009.99 1009.86 1009.85 1009.98 1010.27 1010.71 1011.26 1011.90 1012.59 1013.27 1013.93 1014.53 1015.06 1015.50 1015.87 1016.15 1016.35 1016.46 1016.50 1016.46 1016.37 1016.25 1016.12 1016.02 1015.98 1016.04 1016.22 1016.52 1016.94 1017.47 1018.05 1018.67 1019.28 1019.84 1020.35 1020.78 1021.13 1021.43 1021.69 1021.91
1010.87 1010.65 1010.36 1010.04 1009.75 1009.53 1009.43 1009.50 1009.73 1010.14 1010.71 1011.39 1012.14 1012.93 1013.72 1014.46 1015.14 1015.75 1016.26 1016.69 1017.02 1017.26 1017.41 1017.48 1017.48 1017.43 1017.37 1017.34 1017.35 1017.44 1017.64 1017.95 1018.36 1018.86 1019.41 1019.98 1020.53 1021.03 1021.46 1021.82 1022.11 1022.34 1022.53 1022.70
1011.03 1010.75 1010.40 1010.01 1009.63 1009.32 1009.12 1009.09 1009.24 1009.58 1010.10 1010.77 1011.55 1012.39 1013.26 1014.12 1014.93 1015.67 1016.34 1016.92 1017.40 1017.78 1018.07 1018.27 1018.40 1018.47 1018.52 1018.57 1018.65 1018.80 1019.02 1019.34 1019.74 1020.20 1020.70 1021.21 1021.69 1022.12 1022.47 1022.75 1022.97 1023.13 1023.26 1023.37
1011.18 1010.90 1010.52 1010.10 1009.67 1009.28 1009.00 1008.87 1008.93 1009.19 1009.63 1010.25 1011.01 1011.87 1012.78 1013.70 1014.60 1015.45 1016.24 1016.95 1017.57 1018.09 1018.52 1018.86 1019.12 1019.32 1019.48 1019.62 1019.78 1019.97 1020.23 1020.55 1020.93 1021.36 1021.81 1022.26 1022.67 1023.03 1023.31 1023.53 1023.68 1023.78 1023.85 1023.92
1011.30 1011.05 1010.71 1010.30 1009.87 1009.46 1009.13 1008.94 1008.93 1009.10 1009.47 1010.03 1010.74 1011.57 1012.48 1013.42 1014.37 1015.29 1016.16 1016.96 1017.68 1018.31 1018.85 1019.31 1019.68 1019.98 1020.24 1020.46 1020.68 1020.92 1021.20 1021.52 1021.89 1022.28 1022.69 1023.08 1023.43 1023.73 1023.96 1024.13 1024.23 1024.30 1024.34 1024.37
1011.35 1011.18 1010.93 1010.60 1010.23 1009.86 1009.54 1009.34 1009.28 1009.41 1009.72 1010.21 1010.86 1011.65 1012.52 1013.45 1014.40 1015.34 1016.24 1017.08 1017.86 1018.55 1019.16 1019.69 1020.13 1020.51 1020.82 1021.10 1021.37 1021.64 1021.93 1022.25 1022.59 1022.96 1023.33 1023.68 1023.99 1024.25 1024.44 1024.58 1024.66 1024.70 1024.72 1024.74
1011.36 1011.31 1011.18 1010.97 1010.72 1010.44 1010.20 1010.03 1009.98 1010.09 1010.37 1010.81 1011.41 1012.14 1012.97 1013.86 1014.78 1015.69 1016.58 1017.42 1018.20 1018.91 1019.53 1020.08 1020.55 1020.95 1021.30 1021.60 1021.89 1022.17 1022.46 1022.77 1023.10 1023.44 1023.78 1024.10 1024.38 1024.61 1024.79 1024.91 1024.98 1025.02 1025.04 1025.05
1011.36 1011.43 1011.45 1011.40 1011.28 1011.14 1011.01 1010.92 1010.93 1011.06 1011.33 1011.76 1012.32 1013.00 1013.78 1014.62 1015.48 1016.35 1017.20 1017.99 1018.74 1019.41 1020.01 1020.53 1020.99 1021.38 1021.72 1022.03 1022.31 1022.59 1022.87 1023.17 1023.48 1023.80 1024.11 1024.40 1024.67 1024.88 1025.05 1025.16 1025.22 1025.26 1025.28 1025.29
1011.39 1011.58 1011.74 1011.83 1011.88 1011.88 1011.87 1011.89 1011.98 1012.16 1012.45 1012.88 1013.43 1014.08 1014.82 1015.61 1016.43 1017.24 1018.02 1018.76 1019.44 1020.05 1020.59 1021.07 1021.48 1021.84 1022.15 1022.43 1022.70 1022.96 1023.23 1023.51 1023.80 1024.10 1024.39 1024.66 1024.90 1025.09 1025.24 1025.34 1025.40 1025.43 1025.45 1025.46
1011.49 1011.77 1012.03 1012.25 1012.43 1012.56 1012.68 1012.80 1012.97 1013.21 1013.55 1014.00 1014.56 1015.20 1015.92 1016.68 1017.46 1018.22 1018.95 1019.62 1020.23 1020.78 1021.25 1021.66 1022.01 1022.32 1022.60 1022.85 1023.10 1023.34 1023.60 1023.86 1024.13 1024.40 1024.66 1024.90 1025.11 1025.28 1025.40 1025.48 1025.53 1025.54 1025.55 1025.55
1011.67 1012.00 1012.33 1012.63 1012.89 1013.12 1013.33 1013.53 1013.78 1014.08 1014.47 1014.96 1015.54 1016.20 1016.92 1017.67 1018.43 1019.16 1019.84 1020.47 1021.02 1021.50 1021.91 1022.26 1022.56 1022.82 1023.06 1023.29 1023.51 1023.74 1023.98 1024.22 1024.47 1024.71 1024.93 1025.14 1025.31 1025.43 1025.52 1025.57 1025.59 1025.60 1025.59 1025.58
1011.91 1012.26 1012.61 1012.94 1013.25 1013.52 1013.78 1014.04 1014.34 1014.70 1015.13 1015.66 1016.27 1016.96 1017.70 1018.47 1019.22 1019.94 1020.61 1021.20 1021.71 1022.15 1022.51 1022.81 1023.07 1023.30 1023.51 1023.71 1023.92 1024.14 1024.36 1024.58 1024.81 1025.01 1025.20 1025.36 1025.48 1025.57 1025.61 1025.63 1025.62 1025.61 1025.59 1025.58
1012.18 1012.51 1012.85 1013.18 1013.49 1013.77 1014.05 1014.34 1014.67 1015.07 1015.54 1016.10 1016.75 1017.48 1018.24 1019.03 1019.81 1020.53 1021.19 1021.77 1022.26 1022.67 1023.00 1023.26 1023.49 1023.70 1023.89 1024.08 1024.28 1024.49 1024.70 1024.91 1025.10 1025.28 1025.43 1025.54 1025.62 1025.66 1025.67 1025.66 1025.63 1025.61 1025.60 1025.60
1012.42 1012.73 1013.04 1013.35 1013.64 1013.92 1014.19 1014.49 1014.84 1015.26 1015.76 1016.36 1017.04 1017.80 1018.60 1019.41 1020.20 1020.94 1021.60 1022.18 1022.65 1023.04 1023.35 1023.60 1023.81 1023.99 1024.18 1024.36 1024.56 1024.76 1024.96 1025.15 1025.33 1025.47 1025.58 1025.66 1025.70 1025.70 1025.69 1025.67 1025.65 1025.64 1025.65 1025.68
1012.60 1012.89 1013.18 1013.46 1013.73 1014.00 1014.27 1014.58 1014.94 1015.38 1015.90 1016.53 1017.24 1018.02 1018.84 1019.68 1020.48 1021.22 1021.89 1022.45 1022.92 1023.28 1023.58 1023.81 1024.01 1024.18 1024.36 1024.54 1024.73 1024.93 1025.12 1025.30 1025.45 1025.57 1025.65 1025.69 1025.71 1025.70 1025.69 1025.67 1025.68 1025.71 1025.77 1025.85
1012.68 1012.97 1013.25 1013.53 1013.80 1014.08 1014.36 1014.68 1015.07 1015.53 1016.08 1016.72 1017.45 1018.25 1019.09 1019.92 1020.72 1021.46 1022.10 1022.65 1023.09 1023.44 1023.71 1023.93 1024.11 1024.28 1024.44 1024.62 1024.81 1024.99 1025.17 1025.33 1025.46 1025.56 1025.62 1025.65 1025.66 1025.65 1025.66 1025.68 1025.73 1025.82 1025.95 1026.10
1012.68 1012.98 1013.28 1013.58 1013.88 1014.18 1014.50 1014.87 1015.29 1015.78 1016.36 1017.03 1017.77 1018.57 1019.40 1020.21 1020.99 1021.70 1022.31 1022.82 1023.23 1023.55 1023.80 1023.99 1024.15 1024.31 1024.46 1024.63 1024.80 1024.97 1025.14 1025.28 1025.39 1025.47 1025.52 1025.54 1025.55 1025.57 1025.61 1025.68 1025.80 1025.96 1026.17 1026.40
1012.59 1012.92 1013.27 1013.61 1013.97 1014.33 1014.72 1015.15 1015.62 1016.16 1016.78 1017.47 1018.21 1019.00 1019.80 1020.58 1021.32 1021.98 1022.54 1023.01 1023.37 1023.65 1023.87 1024.03 1024.17 1024.31 1024.45 1024.60 1024.76 1024.91 1025.05 1025.18 1025.27 1025.33 1025.37 1025.39 1025.41 1025.46 1025.53 1025.66 1025.85 1026.09 1026.37 1026.67
1012.45 1012.82 1013.22 1013.64 1014.07 1014.52 1015.00 1015.50 1016.05 1016.65 1017.30 1018.01 1018.75 1019.52 1020.28 1021.02 1021.69 1022.29 1022.80 1023.21 1023.53 1023.77 1023.95 1024.08 1024.20 1024.32 1024.44 1024.58 1024.71 1024.84 1024.96 1025.06 1025.13 1025.18 1025.20 1025.22 1025.26 1025.32 1025.44 1025.62 1025.86 1026.16 1026.50 1026.86
Thickness
5666 5666 5670 5679 5684 5690 5691 5694 5699 5710 5724 5726 5726 5731 5739 5749 5756 5760 5763 5767 5768 5768 5772 5774 5773 5773 5770 5766 5763 5760 5757 5754 5751 5747 5743 5739 5736 5734 5731 5728 5724 5721 5718 5715
5656 5660 5675 5681 5682 5681 5684 5687 5696 5708 5718 5719 5720 5722 5730 5736 5740 5745 5749 5753 5755 5757 5759 5761 5763 5764 5763 5760 5758 5756 5753 5751 5748 5745 5741 5738 5734 5730 5726 5721 5717 5714 5711 5708
5655 5670 5675 5672 5671 5672 5680 5685 5695 5701 5711 5718 5718 5713 5718 5724 5730 5733 5738 5742 5743 5744 5746 5748 5750 5753 5754 5753 5752 5751 5749 5748 5744 5741 5738 5733 5726 5721 5716 5711 5708 5704 5701 5697
5659 5671 5667 5666 5670 5675 5677 5693 5695 5697 5702 5711 5716 5708 5708 5712 5712 5713 5717 5722 5725 5729 5733 5735 5737 5739 5741 5743 5745 5743 5742 5740 5739 5736 5733 5728 5721 5714 5709 5704 5697 5693 5690 5687
5659 5666 5664 5664 5674 5679 5685 5698 5697 5698 5701 5707 5714 5714 5698 5708 5699 5696 5700 5704 5708 5712 5715 5717 5721 5725 5728 5731 5733 5733 5732 5731 5731 5729 5725 5720 5715 5708 5701 5695 5689 5684 5680 5677
5664 5673 5672 5675 5683 5686 5690 5691 5693 5697 5703 5693 5709 5710 5692 5697 5693 5687 5687 5689 5692 5696 5700 5703 5707 5711 5713 5717 5719 5720 5720 5718 5718 5717 5714 5709 5704 5697 5690 5684 5678 5674 5669 5665
5658 5668 5675 5680 5676 5681 5684 5679 5677 5680 5686 5696 5706 5701 5679 5686 5688 5683 5678 5676 5679 5682 5685 5688 5692 5694 5697 5699 5701 5703 5704 5702 5702 5702 5699 5695 5691 5686 5679 5672 5666 5662 5657 5652
5653 5660 5673 5678 5678 5681 5683 5687 5686 5686 5691 5696 5698 5686 5671 5676 5677 5675 5671 5669 5669 5670 5672 5673 5675 5678 5680 5682 5684 5686 5686 5685 5684 5683 5680 5678 5674 5669 5663 5658 5653 5647 5642 5636
5657 5662 5677 5681 5686 5688 5684 5689 5708 5699 5704 5696 5684 5672 5664 5668 5667 5666 5664 5662 5660 5660 5660 5661 5662 5664 5665 5667 5667 5668 5668 5667 5666 5665 5663 5659 5655 5651 5645 5641 5635 5629 5625 5621
5659 5657 5673 5680 5686 5688 5696 5699 5694 5695 5689 5683 5677 5674 5669 5662 5661 5660 5657 5654 5651 5650 5650 5650 5651 5651 5652 5653 5652 5652 5652 5650 5648 5647 5645 5641 5637 5633 5628 5623 5617 5612 5607 5605
5661 5657 5667 5675 5674 5680 5685 5688 5693 5701 5704 5694 5676 5670 5683 5672 5665 5658 5651 5647 5643 5641 5640 5640 5639 5639 5639 5639 5639 5638 5636 5634 5631 5629 5626 5623 5618 5614 5610 5605 5600 5596 5591 5588
5661 5663 5664 5669 5678 5686 5687 5688 5691 5687 5687 5696 5693 5660 5675 5672 5663 5653 5643 5637 5633 5631 5630 5629 5628 5627 5627 5625 5624 5622 5620 5617 5615 5612 5609 5605 5601 5597 5592 5588 5583 5580 5576 5572
5659 5658 5655 5659 5667 5678 5679 5682 5688 5691 5690 5690 5685 5656 5662 5659 5650 5642 5634 5628 5623 5620 5618 5617 5616 5614 5612 5610 5608 5606 5604 5601 5599 5596 5593 5589 5585 5580 5576 5572 5568 5564 5561 5557
5659 5658 5657 5655 5661 5671 5668 5674 5681 5685 5687 5684 5682 5656 5647 5643 5637 5630 5623 5618 5613 5609 5606 5604 5601 5599 5597 5595 5594 5592 5589 5586 5583 5581 5578 5574 5569 5565 5562 5558 5554 5551 5547 5544
5661 5654 5656 5659 5663 5665 5662 5664 5670 5672 5675 5675 5667 5655 5643 5636 5630 5621 5614 5608 5603 5598 5594 5591 5587 5584 5582 5580 5578 5576 5573 5571 5569 5566 5562 5558 5555 5551 5547 5544 5540 5537 5534 5531
5658 5651 5652 5649 5656 5657 5650 5651 5654 5653 5656 5656 5649 5636 5634 5627 5620 5610 5604 5599 5592 5587 5582 5578 5574 5571 5568 5565 5563 5561 5558 5556 5554 5552 5549 5545 5541 5538 5534 5531 5527 5524 5521 5517
5657 5650 5646 5642 5648 5651 5635 5634 5638 5636 5637 5639 5631 5621 5618 5610 5605 5599 5593 5588 5582 5576 5570 5565 5562 5558 5555 5552 5550 5548 5546 5544 5543 5540 5537 5534 5530 5527 5524 5521 5516 5512 5509 5505
5652 5650 5649 5645 5641 5626 5623 5635 5633 5627 5621 5622 5615 5608 5602 5596 5590 5586 5582 5576 5569 5563 5558 5554 5550 5547 5544 5541 5539 5538 5536 5535 5533 5530 5526 5523 5520 5516 5512 5509 5505 5501 5497 5494
5655 5650 5647 5643 5635 5623 5623 5627 5629 5622 5608 5607 5601 5594 5589 5584 5579 5570 5567 5564 5559 5553 5548 5544 5540 5537 5535 5533 5531 5529 5527 5525 5523 5519 5516 5512 5509 5506 5502 5499 5494 5490 5487 5483
5653 5652 5648 5639 5630 5620 5619 5625 5627 5621 5601 5599 5595 5588 5583 5581 5575 5560 5554 5551 5547 5542 5538 5534 5531 5529 5527 5524 5523 5521 5519 5516 5513 5510 5506 5502 5499 5496 5492 5488 5485 5481 5478 5474
5646 5644 5641 5636 5629 5622 5620 5622 5620 5607 5600 5596 5591 5585 5581 5577 5571 5554 5546 5541 5537 5533 5530 5527 5524 5521 5519 5517 5514 5512 5510 5506 5503 5500 5497 5493 5490 5487 5483 5479 5475 5472 5470 5466
5644 5641 5635 5633 5626 5615 5616 5619 5611 5602 5601 5594 5587 5581 5574 5565 5556 5546 5540 5535 5531 5527 5523 5520 5518 5515 5512 5509 5507 5504 5501 5497 5494 5492 5489 5485 5482 5480 5477 5472 5468 5465 5462 5461
5644 5640 5639 5630 5619 5611 5611 5608 5604 5603 5595 5588 5581 5574 5566 5557 5548 5541 5535 5530 5526 5522 5518 5516 5513 5509 5505 5502 5500 5497 5492 5489 5487 5484 5481 5478 5475 5472 5469 5467 5464 5462 5458 5457
5639 5638 5635 5624 5613 5609 5607 5604 5601 5597 5590 5584 5577 5568 5561 5551 5543 5536 5531 5526 5522 5517 5515 5512 5508 5504 5500 5497 5493 5489 5486 5482 5480 5477 5474 5472 5470 5468 5464 5461 5460 5458 5455 5451
5645 5638 5633 5623 5613 5607 5602 5600 5595 5589 5584 5577 5569 5563 5555 5548 5540 5534 5528 5523 5519 5515 5510 5507 5503 5499 5495 5491 5487 5483 5479 5475 5473 5471 5469 5467 5466 5464 5459 5457 5451 5449 5443 5437
5649 5643 5636 5630 5621 5616 5602 5596 5591 5584 5577 5571 5563 5556 5550 5544 5537 5531 5525 5520 5515 5511 5506 5502 5498 5494 5490 5486 5481 5477 5473 5470 5468 5466 5465 5464 5462 5460 5459 5456 5450 5437 5434 5429